STARLINK-37120

Last updated on Sun Apr 12 2026 00:02:07 GMT+0000 (Coordinated Universal Time)

1 68211U 26053E 26101.50002315 -.01838678 00000+0 -25287-1 0 9997 2 68211 97.2850 337.4098 0001633 75.1557 350.4518 15.60377909 5275

Satellite not in orbit

STARLINK-37120